THOR ABLESTAR DEB, 408

Orbit data source: Space-Track

THOR ABLESTAR DEB, 408 is space debris in LEO originally from a launch on Thu, 29 Jun 1961 UTC launched from the Air Force Eastern Test Range (AFETR). Debris objects in space refer to the collection of defunct objects orbiting the Earth. Examples of debris include non-operational satellites, rocket bodies, and fragments generated from explosions, collisions, or faulty payload assembly.

Loading next visibility...
Identifier
408, 1961-015EH
Orbit
LEO
Country
Flag of USUS
Related business
Manufacturer
Unknown
Mission
Spacecraft
Bus & Motor
Unknown
Mass
Unknown
Launch date (UTC)
1961-06-29 (64 years ago)
Launch vehicle
Unknown
Launch site
Air Force Eastern Test Range (AFETR)
Object type
Payload
Rocket body
Debris
Shape & HBR
Unknown shape, 0.1 m
Radar Cross Section
Medium (>0.1 m² and <1 m²)

Expand to show TLE details & history
Last TLE update: 10 hours ago

TLE from 10 hours ago
0 THOR ABLESTAR DEB
1 00408U 61015EH  25309.95491407  .00000425  00000-0  49623-3 0  9991
2 00408  66.7852 282.1040 0071974 272.2700 120.1111 13.76951566274967
Epoch: 2025-11-05T22:55Z
TLE epoch observation values (Epoch: 2025-11-05T22:55:04.575Z)
Latitude
30.1824°
Longitude
-92.71646°
Altitude
1,004.498 km
Speed
7.339 km/s
True Right ascension
19h 45m 53s
True Declination
30° 02' 17"
Sunlit
Object was in daylight at epoch
Visualization orbit readout
Latitude
Unknown
Longitude
Unknown
Altitude
Unknown
Speed
Unknown
Apparent Right ascension
Unknown
Apparent Declination
Unknown
Sunlit
N/A
Visualization observer readout
Local Sidereal Time
05:09:12
Azimuth
Unknown
Elevation
Unknown
Doppler factor
Unknown
Orbital elements
Apogee altitude
1,026.035 km
Perigee altitude
920.215 km
Semi-major axis
7,351.262 km
Eccentricity
0.0072
Inclination
66.7852°
RAAN
282.104°
Arg. of periapsis
272.27°
True anomaly
120.82134°
Mean anomaly
120.1111°
Eccentric anomaly
120.46654°
Mean motion
3.4435 °/min
Orbital period
104.54 mins
BSTAR
0.00049623

Documentation

Showing up to 5 results
|